Location: Fort Worth, Tx
(32.7431°N, 97.3695°W)
Time: 01:07:23
(UTC-04:00)

A-11 Canister half - Pass Details

Date: 03 March 2024
Orbit: 1525 x 1683 km, 47.3° (Epoch: 24 April)

Event Time Altitude Azimuth Distance (km) Brightness Sun altitude
Rises 22:47:18 0° 285° (WNW) 4,772 12.4 -41.7°
Reaches altitude 10° 22:50:55 10° 295° (WNW) 3,765 11.7 -42.4°
Maximum altitude 22:59:14 33° 357° (N) 2,378 10.0 -44.0°
Enters shadow 22:59:26 33° 359° (N) 2,378 10.0 -44.1°
